Location: De Vink
(52.1500°N, 4.4667°E)
Time: 00:21:44
(UTC+00:00)

Daily predictions for brighter satellites

Satellite Brightness Start Highest point End
(mag) Time Altitude Azimuth Time Altitude Azimuth Time Altitude Azimuth
STARLINK-1361 3.0 00:00:19 10° W 00:03:26 75° N 00:06:34 10° E
STARLINK-1367 3.0 00:00:34 10° W 00:03:43 76° N 00:06:53 10° E
STARLINK-1366 3.0 00:00:57 10° W 00:04:05 75° N 00:07:13 10° E
Cosmos 1400 Rocket 4.4 00:01:47 10° N 00:05:33 32° ENE 00:09:10 11° SE
STARLINK-66 4.2 00:07:08 25° SE 00:07:08 25° SE 00:09:40 10° E
Cosmos 2227 Rocket 2.9 00:01:48 10° NW 00:07:04 40° WSW 00:10:11 22° SSW
Landsat 4 3.8 00:03:44 10° N 00:07:26 70° WNW 00:09:24 26° SSW
STARLINK-1338 3.6 00:04:12 10° W 00:08:11 82° N 00:12:12 10° E
Cosmos 1763 Rocket 3.5 00:05:57 24° S 00:09:04 70° ESE 00:14:07 10° NNE
Cosmos 1709 Rocket 4.3 00:05:05 20° SSE 00:09:23 60° E 00:15:28 10° NNE
NOSS 7 (E) 4.3 00:09:45 32° SSW 00:11:02 59° SE 00:14:04 10° NE
STARLINK-52 3.0 00:08:08 10° W 00:11:21 80° N 00:14:35 10° E
Cosmos 2084 Rocket 3.5 00:07:07 10° NW 00:11:33 68° SW 00:14:58 17° SSE
Cosmos 1356 Rocket 4.4 00:07:57 10° NNW 00:11:50 35° W 00:13:55 22° SW
STARLINK-1371 3.6 00:12:33 10° W 00:16:32 80° N 00:20:31 10° E
STARLINK-1318 4.5 00:18:06 20° SE 00:18:06 20° SE 00:20:15 10° E
SL-16 R/B 3.6 00:12:05 10° SE 00:17:50 43° ENE 00:23:38 10° N
Cosmos 1758 Rocket 3.9 00:15:28 23° SSE 00:18:03 57° E 00:22:25 10° NNE
STARLINK-75 4.0 00:18:02 27° SSE 00:18:09 27° SSE 00:20:58 10° E
STARLINK-1275 4.4 00:18:59 21° SE 00:18:59 21° SE 00:21:10 10° E
STARLINK-1309 4.4 00:19:50 21° SE 00:19:50 21° SE 00:22:03 10° E
STARLINK-1282 4.4 00:20:42 21° SE 00:20:42 21° SE 00:22:57 10° E
STARLINK-1341 3.6 00:16:56 10° W 00:20:55 79° N 00:24:55 10° E
Nadezhda 1 Rocket 4.4 00:15:09 10° NNW 00:21:12 54° W 00:25:28 20° SSW
STARLINK-1313 4.2 00:21:38 24° SE 00:21:38 24° SE 00:24:09 10° E
CZ-4 R/B 3.8 00:17:08 10° NNE 00:21:55 86° ESE 00:24:50 23° SSW
STARLINK-1279 4.2 00:22:33 24° SE 00:22:33 24° SE 00:25:05 10° E
IRAS Rocket 4.4 00:18:05 14° SSE 00:22:56 73° ENE 00:28:27 10° NNW
STARLINK-1298 4.3 00:23:16 22° SE 00:23:16 22° SE 00:25:39 10° E
STARLINK-1293 4.3 00:24:09 23° SE 00:24:09 23° SE 00:26:36 10° E
STARLINK-1374 3.6 00:21:17 10° W 00:25:17 78° N 00:29:19 10° E
STARLINK-1255 4.2 00:25:54 23° SE 00:25:54 23° SE 00:28:26 10° E
STARLINK-22 4.1 00:26:16 25° SSE 00:26:25 25° SE 00:29:10 10° E
STARLINK 1040 2.3 00:26:21 48° SSW 00:26:46 57° SSE 00:29:18 10° E
SL-16 R/B 4.2 00:23:26 10° SE 00:26:53 17° E 00:30:21 10° ENE
STARLINK-1444 1.8 00:24:44 10° W 00:26:52 68° SSW 00:26:52 68° SSW
Cosmos 2208 Rocket 4.4 00:23:37 21° S 00:26:58 55° ESE 00:32:13 10° NNE
STARLINK-1297 4.4 00:26:32 24° SSE 00:27:04 25° SE 00:30:04 10° E
Cosmos 2285 Rocket 4.0 00:20:45 10° NNW 00:27:05 68° WSW 00:31:55 18° S
STARLINK-1452 2.0 00:25:22 10° W 00:27:18 59° WSW 00:27:18 59° WSW
STARLINK-1392 3.1 00:26:10 10° W 00:27:26 30° W 00:27:26 30° W
STARLINK-1399 2.9 00:26:12 10° W 00:27:36 34° W 00:27:36 34° W
STARLINK-1393 3.0 00:26:14 10° W 00:27:35 32° W 00:27:35 32° W
STARLINK-1311 3.9 00:28:27 25° SE 00:28:27 25° SE 00:30:54 10° E
STARLINK-1394 3.0 00:26:16 10° W 00:27:36 32° W 00:27:36 32° W
STARLINK-1395 3.5 00:26:21 10° W 00:27:24 25° W 00:27:24 25° W
STARLINK-1397 2.9 00:26:20 10° W 00:27:44 34° W 00:27:44 34° W
STARLINK-1396 3.0 00:26:21 10° W 00:27:42 33° W 00:27:42 33° W
STARLINK-1414 3.2 00:26:21 10° W 00:27:36 30° W 00:27:36 30° W
STARLINK-1408 3.2 00:26:24 10° W 00:27:38 29° W 00:27:38 29° W
STARLINK-1416 3.1 00:26:26 10° W 00:27:43 31° W 00:27:43 31° W
STARLINK-1404 2.9 00:26:25 10° W 00:27:49 34° W 00:27:49 34° W
STARLINK-1415 2.7 00:26:27 10° W 00:27:56 38° W 00:27:56 38° W
STARLINK-1406 3.3 00:26:30 10° W 00:27:41 28° W 00:27:41 28° W
STARLINK-1450 2.7 00:26:29 10° W 00:28:00 38° W 00:28:00 38° W
STARLINK-1401 2.7 00:26:30 10° W 00:28:00 38° W 00:28:00 38° W
STARLINK-1417 2.7 00:26:34 10° W 00:28:04 38° W 00:28:04 38° W
STARLINK-1413 2.7 00:26:35 10° W 00:28:05 38° W 00:28:05 38° W
STARLINK-1402 2.7 00:26:35 10° W 00:28:04 38° W 00:28:04 38° W
STARLINK-1419 2.9 00:26:36 10° W 00:27:59 34° W 00:27:59 34° W
STARLINK-1422 2.8 00:26:41 10° W 00:28:09 37° W 00:28:09 37° W
STARLINK-1453 2.5 00:26:42 10° W 00:28:18 42° W 00:28:18 42° W
STARLINK-1398 2.3 00:26:43 10° W 00:28:28 49° WSW 00:28:28 49° WSW
STARLINK-1420 2.6 00:26:45 10° W 00:28:17 39° W 00:28:17 39° W
STARLINK-1440 2.6 00:26:47 10° W 00:28:21 40° W 00:28:21 40° W
STARLINK-1460 2.6 00:26:48 10° W 00:28:20 39° W 00:28:20 39° W
STARLINK-1436 (VISORSAT) 2.2 00:26:48 10° W 00:28:34 50° WSW 00:28:34 50° WSW
STARLINK-1410 2.7 00:26:52 10° W 00:28:22 38° W 00:28:22 38° W
STARLINK-1423 2.9 00:26:53 10° W 00:28:16 33° W 00:28:16 33° W
STARLINK-1421 2.9 00:26:54 10° W 00:28:16 34° W 00:28:16 34° W
STARLINK-1400 2.7 00:26:53 10° W 00:28:24 38° W 00:28:24 38° W
STARLINK-1454 2.7 00:26:54 10° W 00:28:26 39° W 00:28:26 39° W
STARLINK-1458 2.8 00:26:57 10° W 00:28:24 36° W 00:28:24 36° W
STARLINK-1445 2.6 00:26:59 10° W 00:28:35 41° W 00:28:35 41° W
STARLINK-1407 2.6 00:27:01 10° W 00:28:35 40° W 00:28:35 40° W
STARLINK-1405 3.4 00:27:04 10° W 00:28:09 25° W 00:28:09 25° W
STARLINK-1446 2.6 00:27:02 10° W 00:28:37 41° W 00:28:37 41° W
STARLINK-1370 2.6 00:27:04 10° W 00:28:37 40° W 00:28:37 40° W
STARLINK-1439 3.4 00:27:07 10° W 00:28:12 25° W 00:28:12 25° W
STARLINK-1456 2.8 00:27:06 10° W 00:28:32 36° W 00:28:32 36° W
STARLINK-1457 2.8 00:27:06 10° W 00:28:33 36° W 00:28:33 36° W
STARLINK-1451 2.8 00:27:06 10° W 00:28:33 36° W 00:28:33 36° W
STARLINK-1409 2.8 00:27:06 10° W 00:28:33 36° W 00:28:33 36° W
STARLINK-1447 2.6 00:27:07 10° W 00:28:41 40° W 00:28:41 40° W
STARLINK-1455 2.6 00:27:07 10° W 00:28:41 40° W 00:28:41 40° W
STARLINK-1437 2.7 00:27:08 10° W 00:28:38 38° W 00:28:38 38° W
STARLINK-1441 2.6 00:27:09 10° W 00:28:44 41° W 00:28:44 41° W
STARLINK-1443 2.4 00:27:12 10° W 00:28:52 45° W 00:28:52 45° W
STARLINK-1351 2.6 00:27:14 10° W 00:28:48 41° W 00:28:48 41° W
STARLINK-1418 2.6 00:27:14 10° W 00:28:47 40° W 00:28:47 40° W
STARLINK-1403 2.5 00:27:14 10° W 00:28:52 43° W 00:28:52 43° W
STARLINK-1434 2.4 00:27:14 10° W 00:28:54 45° W 00:28:54 45° W
STARLINK-1442 2.6 00:27:15 10° W 00:28:50 41° W 00:28:50 41° W
STARLINK-1448 2.6 00:27:17 10° W 00:28:51 41° W 00:28:51 41° W
STARLINK-1433 2.6 00:27:18 10° W 00:28:51 40° W 00:28:51 40° W
STARLINK-1449 2.5 00:27:20 10° W 00:28:56 42° W 00:28:56 42° W
STARLINK-1438 2.8 00:27:22 10° W 00:28:49 35° W 00:28:49 35° W
STARLINK-1339 3.6 00:25:33 10° W 00:29:32 78° N 00:33:32 10° E
STARLINK-1411 2.7 00:27:30 10° W 00:29:01 38° W 00:29:01 38° W
STARLINK-1412 2.6 00:27:30 10° W 00:29:05 41° W 00:29:05 41° W
CZ-2D R/B 3.7 00:26:25 10° NE 00:30:43 25° E 00:34:57 10° SSE
Cosmos-2242 2.9 00:27:22 10° N 00:31:39 89° WSW 00:34:23 22° S
Meteor 2-10 Rocket 3.6 00:27:00 10° NNW 00:32:05 59° W 00:35:16 22° S
MOZ.5/SAFIR/RUBIN 5/SL-8 4.5 00:29:16 10° SE 00:33:39 51° ENE 00:38:11 10° N
USA 81 4.0 00:30:17 21° S 00:33:51 87° E 00:39:11 10° N
STARLINK-1377 3.6 00:29:58 10° W 00:33:58 78° N 00:37:59 10° E
Cosmos 2221 4.4 00:30:30 10° N 00:34:15 27° ENE 00:37:59 10° SE
USA 215 3.5 00:29:06 10° SSE 00:35:25 48° SW 00:41:44 10° WNW
Cosmos 1953 Rocket 4.1 00:33:32 19° SSE 00:36:26 50° E 00:40:42 10° NNE
BREEZE-M R/B 3.1 00:30:23 10° WSW 00:36:41 61° S 00:39:58 10° E
STARLINK-42 3.6 00:36:27 31° S 00:37:04 35° SSE 00:39:58 10° E
Cosmos 1626 Rocket 4.4 00:34:39 18° SW 00:37:27 40° WNW 00:41:37 10° N
STARLINK-1353 3.7 00:34:17 10° W 00:38:18 77° N 00:42:20 10° E
Meteor 1-21 Rocket 4.3 00:34:27 21° SSW 00:38:27 79° WNW 00:44:18 10° NNE
STARLINK-60 2.9 00:36:11 10° WNW 00:39:19 57° SSW 00:42:28 10° ESE
GP-B 4.0 00:35:10 10° NNE 00:39:27 44° E 00:42:59 14° SSE
FALCON 9 DEB 3.2 00:36:17 10° W 00:39:45 82° N 00:43:13 10° E
STARLINK-34 4.3 00:40:02 22° SSE 00:40:10 22° SE 00:42:38 10° E
STARLINK-41 3.5 00:40:11 31° S 00:40:48 35° SSE 00:43:37 10° E
SeaSat 1 3.9 00:37:25 10° NNE 00:41:50 33° NW 00:46:13 10° WSW
STARLINK-1375 3.7 00:38:40 10° W 00:42:41 77° N 00:46:43 10° E
CZ-4C R/B 4.3 00:38:35 10° SE 00:42:50 52° ENE 00:47:09 10° N
STARLINK-1272 4.1 00:42:02 26° S 00:43:01 31° SSE 00:46:12 10° E
STARLINK-62 4.2 00:43:45 23° SSE 00:44:00 23° SE 00:46:31 10° E
Cosmos 540 Rocket 3.5 00:41:07 21° SSW 00:44:32 72° ESE 00:49:40 10° NNE
STARLINK-1350 3.7 00:43:00 10° W 00:47:01 77° N 00:51:03 10° E
Helios 1B rocket 2.8 00:43:39 10° N 00:47:44 58° WNW 00:50:24 20° SW
STARLINK-1307 4.1 00:46:48 25° S 00:48:10 34° SSE 00:51:34 10° E
STARLINK-1352 3.7 00:47:16 10° W 00:51:17 77° N 00:55:17 10° E
STARLINK-1290 4.1 00:50:11 25° SSW 00:51:40 35° SSE 00:55:06 10° E
Cosmos 1980 Rocket 2.2 00:51:50 19° SSW 00:55:53 74° ESE 01:01:33 10° NNE
STARLINK-1368 3.7 00:51:51 10° W 00:55:53 78° N 00:59:55 10° E
Meteor 1-29 3.1 00:52:59 10° N 00:56:20 62° WNW 00:58:11 24° SSW
Cosmos 2074 Rocket 4.5 00:51:22 14° SSE 00:56:46 56° E 01:02:53 10° NNE
Cosmos 1455 3.2 00:54:56 10° NNW 00:58:17 31° W 01:00:05 20° SW
STARLINK-1317 3.9 00:56:33 22° SSW 00:58:36 42° SSE 01:02:19 10° E
STARLINK-1369 3.7 00:56:17 10° W 01:00:19 78° N 01:04:21 10° E
Cosmos 1328 3.9 00:59:35 22° SSW 01:02:05 71° W 01:06:05 10° N
STARLINK-55 3.0 01:00:33 22° SW 01:02:22 55° SSE 01:05:31 10° ENE
STARLINK-1274 3.7 01:00:55 24° SSW 01:02:36 40° SSE 01:05:58 10° E
STARLINK-43 3.2 01:00:05 11° WSW 01:03:40 81° SSE 01:07:22 10° ENE
OPS 8737 4.4 01:00:37 10° NW 01:03:45 85° SW 01:07:49 10° SE
STARLINK-1372 3.6 01:00:31 10° W 01:04:32 79° N 01:08:34 10° E
STARLINK-1291 3.8 01:04:16 22° SSW 01:06:18 44° SSE 01:09:51 10° E
Lacrosse 4 Rocket 3.3 01:03:54 10° WNW 01:06:19 15° WSW 01:07:20 14° WSW
Cosmos 2369 4.0 01:02:04 15° SW 01:06:48 63° NW 01:12:27 10° NNE
Meteor 1-11 4.3 01:03:54 17° S 01:08:18 77° E 01:13:54 10° NNE
Cosmos 1703 3.6 01:05:53 20° SSW 01:08:23 55° WNW 01:12:15 10° N
ADEOS II 4.0 01:04:37 10° NE 01:08:43 22° E 01:12:47 10° SE
STARLINK-1378 3.6 01:05:09 10° W 01:09:11 79° N 01:13:13 10° E
Cosmos 2263 Rocket 2.1 01:03:47 10° NNW 01:09:25 78° WSW 01:14:58 10° SSE
STARLINK-1264 3.7 01:07:26 21° SW 01:09:36 45° SSE 01:13:12 10° E
Cosmos 1825 Rocket 3.9 01:08:39 19° SSW 01:11:36 54° WNW 01:15:55 10° N
STARLINK-29 2.9 01:08:57 10° WNW 01:12:08 59° SSW 01:15:16 10° ESE
Cosmos 2297 Rocket 4.2 01:10:31 10° WNW 01:12:21 12° W 01:14:11 10° WSW
STARLINK-1267 3.7 01:10:40 20° SW 01:12:56 47° SSE 01:16:34 10° ENE
SL-4 R/B 2.6 01:08:55 10° W 01:13:34 47° SSW 01:18:05 10° SE
STARLINK-1379 3.6 01:09:38 10° W 01:13:41 80° N 01:17:44 10° E
STARLINK-28 2.9 01:11:34 17° WSW 01:13:52 66° SSE 01:17:04 10° ENE
USA 229 DEB 3.8 01:07:50 10° NW 01:15:01 73° SW 01:22:34 10° SSE
USA 229 3.8 01:07:57 10° NW 01:15:07 73° SW 01:22:40 10° SSE
STARLINK-64 4.5 01:14:12 20° S 01:15:41 26° SE 01:18:45 10° E
NOSS 3-1 (C) 4.0 01:08:33 10° NW 01:15:50 69° SW 01:24:17 10° SSE
UNK 3.7 01:11:40 11° SSE 01:16:03 89° ENE 01:20:39 10° NNW
STARLINK-1329 3.6 01:13:26 10° W 01:17:30 81° N 01:21:33 10° E
NPP 4.3 01:12:44 10° NNE 01:18:01 51° E 01:22:53 12° S
NOSS 2-1 (D) 4.4 01:16:51 16° SSE 01:18:46 26° ESE 01:21:49 10° ENE
STARLINK-1207 3.6 01:17:09 18° SW 01:19:42 51° SSE 01:23:21 10° ENE
Cosmos 2184 Rocket 4.1 01:16:26 14° S 01:21:50 78° E 01:28:02 10° NNE
STARLINK-1362 3.6 01:17:58 10° W 01:22:02 82° N 01:26:06 10° E
CZ-4C R/B 2.9 01:17:19 10° WSW 01:22:35 55° NNW 01:28:58 10° NE
STARLINK-1266 3.5 01:20:25 17° SW 01:23:05 53° SSE 01:26:46 10° ENE
BREEZE-M DEB (TANK) 3.0 01:23:13 21° S 01:23:32 22° SSE 01:25:39 10° E
NOSS 3-1 (A) 4.0 01:16:43 10° NW 01:24:02 82° SW 01:32:34 10° SE
STARLINK-33 2.8 01:21:41 16° WSW 01:24:03 68° SSE 01:27:10 10° ENE
Cosmos 1892 4.3 01:22:24 10° SSE 01:25:41 28° E 01:28:58 10° NNE
STARLINK-1284 3.5 01:23:41 16° SW 01:26:29 56° SSE 01:30:10 10° ENE
STARLINK-1373 3.6 01:22:30 10° W 01:26:33 83° N 01:30:36 10° E
STARLINK-1320 2.8 01:23:39 10° WNW 01:26:47 89° SW 01:29:56 10° ESE
STARLINK-1322 2.8 01:24:01 10° WNW 01:27:09 89° SSE 01:30:17 10° ESE
STARLINK-1324 2.8 01:24:20 10° WNW 01:27:28 89° S 01:30:36 10° ESE
STARLINK-26 3.0 01:24:28 13° WSW 01:27:31 74° SSE 01:30:58 10° ENE
BREEZE-M DEB (TANK) 1.2 01:25:04 10° W 01:27:34 49° S 01:29:56 10° ESE
STARLINK-1294 2.8 01:24:38 10° WNW 01:27:46 89° SSW 01:30:55 10° ESE
STARLINK-1261 2.8 01:25:01 10° WNW 01:28:09 89° SSW 01:31:17 10° ESE
STARLINK-1325 2.8 01:25:22 10° WNW 01:28:30 88° S 01:31:38 10° ESE
STARLINK-1333 2.8 01:25:44 10° WNW 01:28:52 88° SSW 01:32:00 10° ESE
Cosmos 1869 3.4 01:25:07 10° N 01:29:00 74° ENE 01:32:52 10° SSE
STARLINK-1334 2.8 01:26:01 10° WNW 01:29:10 88° S 01:32:17 10° ESE
STARLINK-1326 2.8 01:26:21 10° WNW 01:29:29 88° S 01:32:36 10° ESE
Cosmos 2150 Rocket 4.4 01:24:51 10° NW 01:29:43 43° WSW 01:33:54 13° S
STARLINK-1323 2.8 01:26:44 10° WNW 01:29:51 88° SSW 01:33:00 10° ESE
STARLINK-1258 3.5 01:26:59 15° SW 01:29:55 58° SSE 01:33:36 10° ENE
STARLINK-1349 2.8 01:27:01 10° WNW 01:30:10 87° SSW 01:33:18 10° ESE
STARLINK-1336 2.8 01:27:21 10° WNW 01:30:29 87° SSW 01:33:37 10° ESE
STARLINK-1331 2.8 01:27:44 10° WNW 01:30:52 87° SSW 01:34:00 10° ESE
STARLINK-1390 3.6 01:27:06 10° W 01:31:10 85° N 01:35:14 10° E
STARLINK-1344 2.8 01:28:02 10° WNW 01:31:10 87° SSW 01:34:18 10° ESE
STARLINK-1343 2.8 01:28:24 10° WNW 01:31:33 87° SSW 01:34:41 10° ESE
STARLINK-1346 2.8 01:28:41 10° WNW 01:31:51 86° S 01:35:01 10° ESE
STARLINK-1328 2.8 01:29:08 10° WNW 01:32:16 86° SSW 01:35:24 10° ESE
STARLINK-1354 2.8 01:29:26 10° WNW 01:32:34 86° S 01:35:41 10° ESE
STARLINK-1347 2.8 01:29:42 10° WNW 01:32:50 86° SSW 01:35:58 10° ESE
STARLINK-1357 2.8 01:30:08 10° WNW 01:33:16 86° SSW 01:36:24 10° ESE
STARLINK-1292 3.4 01:30:17 14° SW 01:33:20 60° SSE 01:37:03 10° ENE
ATLAS CENTAUR R/B 4.4 01:31:21 10° NNW 01:33:21 13° N 01:35:18 10° NNE
STARLINK-1335 2.8 01:30:25 10° WNW 01:33:34 85° SSW 01:36:41 10° ESE
Cosmos 1814 Rocket 4.5 01:29:12 14° SW 01:33:44 56° WNW 01:38:57 10° NNE
STARLINK-1327 2.8 01:30:46 10° WNW 01:33:55 85° SSW 01:37:02 10° ESE
STARLINK-1340 2.8 01:31:04 10° WNW 01:34:12 85° SSW 01:37:20 10° ESE
STARLINK-1356 2.8 01:31:27 10° WNW 01:34:36 85° S 01:37:43 10° ESE
Cosmos 2322 Rocket 3.0 01:29:42 11° S 01:34:41 42° ESE 01:39:57 10° NE
STARLINK-1345 2.8 01:31:46 10° WNW 01:34:54 85° SSW 01:38:02 10° ESE
STARLINK-1355 2.8 01:32:07 10° WNW 01:35:15 84° SSW 01:38:23 10° ESE
STARLINK-1321 2.8 01:32:28 10° WNW 01:35:36 84° SSW 01:38:44 10° ESE
STARLINK-1358 2.8 01:32:51 10° WNW 01:35:59 84° SSW 01:39:06 10° ESE
STARLINK-1332 2.8 01:33:09 10° WNW 01:36:16 84° SSW 01:39:24 10° ESE
STARLINK-1348 2.8 01:33:29 10° WNW 01:36:37 83° SSW 01:39:45 10° ESE
STARLINK-1330 2.7 01:33:48 10° WNW 01:36:56 83° SSW 01:40:04 10° ESE
STARLINK-1365 3.6 01:33:03 10° W 01:37:10 87° NNE 01:41:15 10° ESE
STARLINK-1363 2.7 01:34:09 10° WNW 01:37:17 83° SSW 01:40:24 10° ESE
STARLINK-1337 2.7 01:34:31 10° WNW 01:37:39 83° SSW 01:40:47 10° ESE
STARLINK-1342 2.7 01:34:50 10° WNW 01:37:58 83° SSW 01:41:05 10° ESE
STARLINK-1364 2.7 01:35:10 10° WNW 01:38:18 82° SSW 01:41:25 10° ESE
STARLINK-1376 2.7 01:35:31 10° WNW 01:38:38 82° SSW 01:41:46 10° ESE
STARLINK-1268 2.8 01:36:29 14° WSW 01:38:59 64° SSE 01:42:03 10° ENE
STARLINK-1360 2.7 01:35:51 10° WNW 01:38:59 82° SSW 01:42:07 10° ESE
STARLINK-1361 2.7 01:36:12 10° WNW 01:39:19 82° SSW 01:42:27 10° ESE
STARLINK-1367 2.8 01:36:27 10° WNW 01:39:38 81° SSW 01:42:47 10° ESE
STARLINK-1366 2.7 01:36:51 10° WNW 01:39:59 81° SSW 01:43:06 10° ESE
Resurs 1-4 Rocket 2.2 01:34:41 10° NNE 01:40:02 85° ESE 01:44:54 13° SSW
STARLINK-1289 3.4 01:36:51 13° WSW 01:40:11 64° SSE 01:43:55 10° ENE
Cosmos 1400 Rocket 4.0 01:38:21 10° NNW 01:41:59 30° W 01:44:46 15° SSW
Cosmos 1697 Rocket 3.8 01:36:51 10° WSW 01:42:09 38° NW 01:47:27 10° NNE
STARLINK-1301 3.4 01:38:34 12° WSW 01:42:09 67° SSE 01:46:00 10° ENE
STARLINK-66 2.8 01:39:35 10° WSW 01:42:48 83° SSE 01:46:01 10° ENE
Cosmos 2278 4.3 01:38:02 11° SW 01:43:21 51° NW 01:48:54 10° NNE
Cosmos 1125 Rocket 3.7 01:38:22 10° NNW 01:43:25 51° WSW 01:48:25 10° S
Cosmos 841 Rocket 4.3 01:38:49 11° SW 01:43:33 42° NW 01:48:31 10° NNE
STARLINK-1303 3.4 01:40:12 12° WSW 01:43:40 67° SSE 01:47:24 10° ENE
STARLINK-1316 2.8 01:41:30 13° WSW 01:44:14 68° SSE 01:47:21 10° ENE
Cosmos 1076 Rocket 4.3 01:40:13 10° SSE 01:44:24 48° E 01:48:38 10° NNE
STARLINK-1257 2.8 01:42:21 12° WSW 01:45:07 69° SSE 01:48:15 10° ENE
STARLINK-1256 2.8 01:43:18 12° WSW 01:46:05 69° SSE 01:49:12 10° ENE
STARLINK-58 3.0 01:44:00 14° SW 01:46:35 57° SSE 01:49:43 10° ENE
STARLINK-1213 2.8 01:44:09 12° WSW 01:46:58 70° SSE 01:50:05 10° ENE
STARLINK-1312 3.3 01:43:32 11° WSW 01:47:09 69° SSE 01:50:55 10° ENE
STARLINK-1338 3.5 01:43:17 10° WNW 01:47:17 89° SSW 01:51:18 10° ESE
STARLINK-52 3.3 01:44:19 10° W 01:47:23 41° SSW 01:50:25 10° SE
STARLINK-1263 2.8 01:45:01 12° WSW 01:47:51 71° SSE 01:50:58 10° ENE
Meteor 2-17 Rocket 4.5 01:42:53 11° S 01:48:45 89° W 01:54:55 10° N
STARLINK-1259 2.8 01:45:54 12° WSW 01:48:48 72° SSE 01:51:55 10° ENE
H-2A R/B 4.2 01:44:57 10° ESE 01:48:48 29° ENE 01:52:42 10° N
STARLINK-1265 2.8 01:46:15 11° WSW 01:49:12 72° SSE 01:52:21 10° ENE
STARLINK-1285 2.8 01:46:45 11° WSW 01:49:40 72° SSE 01:52:48 10° ENE
STARLINK-1296 2.8 01:48:29 11° WSW 01:51:29 73° SSE 01:54:37 10° ENE
STARLINK-1260 2.8 01:49:21 11° WSW 01:52:22 74° SSE 01:55:31 10° ENE
STARLINK-1318 2.8 01:50:13 10° WSW 01:53:17 75° SSE 01:56:24 10° ENE
Cosmos 1408 4.0 01:50:30 10° SSE 01:53:52 34° E 01:57:13 10° NNE
STARLINK-75 2.9 01:50:47 10° WSW 01:54:02 86° SSE 01:57:17 10° ENE
STARLINK-1275 2.8 01:51:06 10° WSW 01:54:12 75° SSE 01:57:20 10° ENE
STARLINK-1309 2.8 01:51:58 10° WSW 01:55:04 76° SSE 01:58:13 10° ENE
STARLINK-1371 3.4 01:51:33 10° WNW 01:55:32 85° SSW 01:59:29 10° ESE
STARLINK-1282 2.8 01:52:51 10° WSW 01:55:58 77° SSE 01:59:05 10° ENE
Cosmos 2154 Rocket 4.1 01:49:54 10° S 01:56:10 89° E 02:02:26 10° N
STARLINK-1313 2.8 01:53:57 10° WSW 01:57:05 82° SSE 02:00:13 10° ENE
STARLINK-48 3.7 01:53:48 12° SW 01:57:14 53° SSE 02:01:03 10° ENE
STARLINK-1279 2.8 01:54:54 10° WSW 01:58:01 82° SSE 02:01:09 10° ENE
GEOS 3 Rocket 3.7 01:53:09 10° SSE 01:58:15 56° SW 02:03:30 10° NW
STARLINK-1298 2.8 01:55:31 10° WSW 01:58:38 79° SSE 02:01:46 10° ENE
STARLINK-1278 4.3 01:55:21 13° SW 01:58:50 41° SSE 02:02:51 10° ENE
STARLINK-1293 2.8 01:56:27 10° WSW 01:59:35 79° SSE 02:02:42 10° ENE
STARLINK-80 3.3 01:55:52 10° WSW 01:59:41 78° SSE 02:03:30 10° ENE
Iridium 2 4.0 01:56:02 10° NNW 01:59:41 49° W 02:03:11 11° SSW
STARLINK-1341 3.4 01:55:57 10° WNW 01:59:56 83° SSW 02:03:54 10° ESE
STARLINK-1283 3.6 01:56:10 10° WSW 02:00:18 80° SSE 02:04:26 10° ENE
Cosmos 1825 3.9 01:57:13 10° SSE 02:00:30 29° E 02:03:46 10° NNE
STARLINK-1280 4.3 01:57:08 13° SW 02:00:40 41° SSE 02:04:42 10° ENE
STARLINK 1040 2.6 01:58:09 10° W 02:00:42 69° N 02:03:16 10° E
STARLINK-1255 2.8 01:58:15 10° WSW 02:01:23 80° SSE 02:04:31 10° ENE
SL-16 R/B 3.0 01:55:38 10° S 02:01:28 44° W 02:07:23 10° NNW
Meteor 2-2 Rocket 4.5 01:55:41 10° NNW 02:01:39 63° W 02:07:32 10° S
STARLINK-22 2.9 01:59:03 10° WSW 02:02:16 83° SSE 02:05:29 10° ENE
SL-08 R/B 3.6 01:58:34 10° SSE 02:03:09 68° ENE 02:07:44 10° N
STARLINK-1311 2.7 02:00:26 10° WSW 02:03:24 87° SSE 02:06:21 10° ENE
Cosmos 1844 Rocket 3.0 01:58:19 10° NNW 02:03:57 71° ENE 02:09:32 10° SE
STARLINK-1297 3.2 02:00:44 10° WSW 02:04:21 78° SSE 02:07:58 10° ENE
STARLINK-1374 3.5 02:00:24 10° WNW 02:04:25 80° SSW 02:08:25 10° ESE
CRYOSAT 2 4.5 02:01:37 10° N 02:06:29 66° W 02:11:19 10° SSW
NOSS 2-1 (E) 3.2 02:04:58 12° SSW 02:08:01 64° SE 02:11:49 10° NE
STARLINK-1339 3.4 02:04:34 10° WNW 02:08:33 78° SSW 02:12:30 10° ESE
STARLINK-1286 4.3 02:05:37 12° SW 02:09:18 42° SSE 02:13:15 10° ENE
SL-16 R/B 2.3 02:04:36 11° SSW 02:10:08 84° ESE 02:15:52 10° NNE
CZ-2D R/B 2.4 02:06:01 10° N 02:11:09 59° WNW 02:16:15 10° SW
Cosmos 2221 3.2 02:07:51 10° NNW 02:11:56 39° W 02:16:00 10° SSW
STARLINK-1281 4.2 02:08:48 11° SW 02:12:32 42° SSE 02:16:28 10° ENE
STARLINK-42 2.9 02:09:34 10° W 02:12:41 83° N 02:15:49 10° E
STARLINK-1377 3.5 02:09:06 10° WNW 02:13:06 75° SSW 02:17:07 10° ESE
IRIDIUM 104 4.4 02:08:20 10° S 02:13:35 84° W 02:18:50 10° N
STARLINK-1029 2.9 02:11:31 10° WSW 02:14:40 68° SSE 02:17:49 10° ENE
STARLINK-34 2.8 02:12:25 10° WSW 02:15:29 79° SSE 02:18:34 10° ENE
STARLINK-41 2.9 02:13:10 10° W 02:16:14 82° N 02:19:17 10° E
FALCON 9 DEB 3.5 02:13:24 10° W 02:16:40 40° SSW 02:19:56 10° SE
Nadezhda 3 Rocket 4.3 02:11:04 10° NNW 02:17:11 53° W 02:23:19 10° SSW
STARLINK-1353 3.5 02:13:26 10° WNW 02:17:27 73° SSW 02:21:27 10° ESE
STARLINK-1310 4.2 02:13:35 10° SW 02:17:30 45° SSE 02:21:28 10° ENE
Cosmos 1315 Rocket 3.8 02:14:12 10° NNW 02:17:40 30° W 02:21:09 10° SSW
ATLAS 5 CENTAUR R/B 3.9 02:16:08 10° NNW 02:17:45 17° NNE 02:20:05 10° ENE
STARLINK-62 2.7 02:16:15 10° WSW 02:19:18 81° SSE 02:22:21 10° ENE
STARLINK-1272 3.2 02:16:31 10° WSW 02:20:04 89° SSE 02:23:38 10° ENE
CBERS-1 4.1 02:15:39 10° NNE 02:20:49 87° WNW 02:25:57 10° SSW
STARLINK-1375 3.5 02:17:49 10° WNW 02:21:50 70° SSW 02:25:49 10° ESE
STARLINK-1319 4.1 02:18:27 10° SW 02:22:26 47° SSE 02:26:26 10° ENE
IRIDIUM 114 4.4 02:17:31 10° S 02:22:44 72° W 02:27:59 10° N
Cosmos 2278 Rocket 4.3 02:20:28 10° NNW 02:25:36 33° NE 02:30:42 10° ESE
STARLINK-1307 3.3 02:22:15 10° WSW 02:25:59 90° N 02:29:43 10° ENE
STARLINK-1350 3.5 02:22:10 10° WNW 02:26:10 68° SSW 02:30:09 10° ESE
STARLINK-1277 4.0 02:23:23 10° SW 02:27:24 50° SSE 02:31:26 10° ENE
Shenzhou-11 Module 3.8 02:27:19 10° S 02:27:38 10° S 02:27:56 10° S
STARLINK-1290 3.4 02:25:47 10° WSW 02:29:30 88° NNW 02:33:15 10° ENE
STARLINK-1352 3.5 02:26:21 10° WNW 02:30:19 65° SSW 02:34:18 10° ESE
Cosmos 2058 3.2 02:27:27 10° SSW 02:31:35 56° WNW 02:35:46 10° N
Cosmos 2360 Rocket 2.6 02:26:43 10° SSW 02:32:14 60° ESE 02:37:49 10° NE
STARLINK-1276 3.9 02:28:21 10° SW 02:32:23 53° SSE 02:36:26 10° ENE
Cosmos 1328 Rocket 4.5 02:28:23 10° N 02:32:43 53° ENE 02:36:59 10° SSE
STARLINK-1368 3.5 02:31:02 10° WNW 02:35:01 62° SSW 02:39:00 10° ESE
STARLINK-1317 3.5 02:33:17 10° W 02:37:13 84° N 02:41:09 10° E
STARLINK-1305 3.9 02:33:16 10° SW 02:37:19 56° SSE 02:41:24 10° ENE
STARLINK-1306 3.9 02:33:52 10° SW 02:38:00 58° SSE 02:42:08 10° ENE
STARLINK-55 3.2 02:35:14 10° W 02:38:27 74° N 02:41:39 10° E
CZ-4B R/B 4.1 02:33:31 10° N 02:38:34 49° WNW 02:43:37 10° SW
STARLINK-1369 3.6 02:35:29 10° WNW 02:39:27 59° SSW 02:43:25 10° SE
STARLINK-1274 3.3 02:36:15 10° W 02:39:48 83° N 02:43:22 10° E
Cosmos 1980 Rocket 3.6 02:35:34 10° W 02:40:27 29° NW 02:45:23 10° NNE
SL-24 DEB 4.4 02:36:03 10° N 02:40:41 80° E 02:45:17 10° S
